Temp
24 26 29 29 29 29 32 34 35 34 34 35 35 32 31 31 29 25 27 28 28 26 23 21 21 21 21 21 21 21 21 21 21 21 21 21 21 21 21 21 21 21 21 21 21 21 21 21 21
29 29 29 31 28 23 32 33 31 33 34 34 33 33 31 28 29 27 26 28 28 27 24 23 21 21 21 21 21 21 21 21 21 21 21 22 21 21 21 21 21 21 21 21 21 21 21 21 21
28 29 32 32 33 24 31 31 33 33 34 34 33 33 31 27 27 27 27 27 27 26 25 22 21 20 20 21 21 20 20 21 21 21 21 21 21 21 21 21 21 21 21 21 21 21 21 22 22
30 31 32 32 27 35 33 34 34 34 33 33 33 31 29 28 27 27 27 26 26 24 24 21 21 20 21 21 21 20 21 21 21 21 21 21 21 21 21 21 21 21 21 21 21 21 22 22 22
30 32 28 30 27 34 35 35 34 34 33 33 33 31 28 27 27 27 27 26 24 24 24 22 21 20 21 21 21 21 21 21 21 20 20 21 21 21 21 21 21 21 21 21 21 21 22 22 23
32 33 31 28 25 33 34 35 34 33 33 32 33 30 27 27 27 26 27 26 24 23 24 22 20 20 20 21 21 21 21 20 21 20 21 21 21 21 21 21 21 21 21 21 21 21 22 23 23
33 31 29 26 27 31 33 34 34 33 33 32 33 31 30 26 25 25 26 25 24 25 23 23 21 20 20 21 21 21 22 21 20 21 21 21 21 21 21 21 21 21 21 21 21 22 23 23 23
33 31 30 30 26 29 33 33 34 33 32 33 34 31 30 27 26 26 26 25 25 23 23 22 22 21 21 21 21 20 21 20 20 21 21 21 21 21 21 22 21 22 22 22 22 23 24 24 24
33 28 28 28 25 27 32 32 33 33 32 32 32 31 31 29 28 26 25 24 24 24 23 23 22 22 22 21 21 20 21 21 21 22 22 22 24 23 23 23 23 22 22 22 22 23 23 23 24
33 28 28 28 25 25 30 31 33 33 32 31 31 30 29 29 29 27 26 25 25 24 23 23 23 22 22 22 21 20 21 21 22 24 23 23 26 26 26 24 24 22 23 23 23 22 23 23 23
32 29 28 26 23 27 31 33 34 31 33 32 31 30 30 29 29 26 26 25 26 24 22 23 23 23 23 21 22 21 21 22 24 23 24 26 25 26 26 25 25 24 25 24 24 23 23 25 23
29 30 28 26 24 28 29 33 33 33 33 33 32 31 31 30 30 28 26 24 23 23 22 24 24 23 23 22 22 23 24 25 26 25 25 25 26 26 27 28 28 27 28 27 27 27 26 26 25
30 29 29 24 24 28 31 29 32 32 33 33 32 31 31 31 30 29 27 24 24 23 24 22 24 24 22 23 24 25 25 26 27 26 26 26 27 26 27 26 28 28 28 28 28 27 27 26 26
33 30 29 28 25 26 28 27 31 32 33 32 32 32 32 31 30 29 28 25 23 24 22 23 24 23 23 22 22 24 26 26 27 27 25 25 27 26 26 26 28 28 29 28 28 26 26 26 26
33 30 28 28 26 26 27 25 29 32 33 32 32 32 32 31 30 29 28 26 25 24 23 24 24 24 24 23 23 25 26 27 27 27 25 25 25 25 26 27 27 27 27 26 26 26 27 28 27
33 30 29 29 30 28 27 24 26 32 32 32 32 32 31 31 31 29 28 27 26 25 24 25 25 23 24 24 23 25 24 25 28 27 26 24 24 24 25 27 27 26 26 28 28 28 29 29 28
32 29 31 30 30 28 28 24 25 31 27 32 32 32 32 32 31 30 29 28 27 26 25 25 23 24 24 22 23 23 24 25 28 28 27 25 25 24 26 27 26 25 27 28 28 28 27 28 28
31 33 33 30 32 32 30 28 28 29 30 32 33 32 32 32 32 30 29 28 25 23 23 25 25 23 23 22 23 24 26 27 28 28 27 25 25 25 25 27 26 25 27 28 28 26 27 28 28
24 33 34 33 33 33 31 28 30 30 31 31 33 32 32 31 32 31 30 29 27 24 25 25 25 24 23 24 26 27 27 27 28 28 25 25 25 25 24 27 25 26 27 26 26 27 27 29 27
33 35 34 34 33 32 33 33 32 31 31 31 32 32 32 31 32 31 30 30 29 27 26 24 25 24 23 25 26 26 28 27 28 28 26 26 25 25 25 25 26 25 27 26 26 26 28 28 28
35 35 35 34 34 34 34 30 33 33 32 32 33 32 33 33 32 33 31 30 29 28 27 26 25 24 24 26 26 25 26 26 27 27 27 26 25 25 25 25 25 25 26 26 26 26 27 28 28
35 36 35 34 33 25 35 23 22 34 33 32 33 33 33 33 33 33 33 31 30 29 28 27 25 25 24 25 26 26 25 26 28 28 28 27 26 26 25 25 24 24 26 27 26 27 26 28 28
35 36 36 35 35 35 35 35 32 35 34 33 33 34 34 32 33 33 33 32 32 30 29 27 26 25 25 25 24 26 25 27 27 28 27 26 25 25 26 25 25 25 25 26 26 26 26 27 28
36 36 36 36 36 35 36 35 33 33 34 35 35 34 34 34 31 34 34 33 33 31 30 29 26 25 24 25 24 25 26 26 26 26 26 27 27 26 25 25 25 25 25 25 26 25 26 26 26
36 36 35 34 35 34 36 35 35 35 36 36 36 35 34 33 34 33 34 34 32 32 31 30 27 25 24 25 25 24 25 25 25 25 27 28 28 28 26 25 25 25 25 26 26 25 25 26 26
35 36 35 33 35 35 35 34 36 37 37 36 35 35 34 34 33 34 34 33 32 31 31 30 28 25 25 25 25 25 25 25 25 25 25 26 24 28 26 25 26 26 26 26 25 26 26 26 26
36 35 38 36 37 36 37 36 37 37 36 35 36 34 34 34 34 33 34 33 33 31 31 30 29 26 26 26 25 25 25 25 26 27 25 25 27 23 26 26 26 26 26 26 26 26 25 25 25
36 37 35 36 33 33 36 35 35 35 35 36 35 35 35 34 33 34 34 33 32 31 31 30 29 27 26 26 26 25 25 25 25 26 25 26 25 26 24 26 26 25 26 26 25 25 26 25 25
35 35 35 36 36 34 34 34 37 36 36 35 35 35 35 34 34 33 33 33 32 31 31 30 29 28 27 27 27 26 26 26 26 26 26 25 26 25 25 25 25 25 26 26 25 25 25 25 25
36 35 36 35 34 35 35 35 37 36 35 35 34 34 34 33 33 33 32 32 31 31 30 30 29 29 28 28 27 27 26 26 27 26 26 25 25 25 25 25 25 25 26 26 25 25 25 26 26
Height
771 770 768 765 778 770 766 756 737 752 750 743 744 757 764 767 780 809 792 791 794 800 806 808 809 811 813 814 815 816 818 819 821 822 823 823 823 824 825 824 824 825 826 827 827 827 828 828 829
768 769 766 758 785 811 768 750 765 752 749 746 753 755 764 786 778 789 794 793 796 798 806 810 811 812 814 816 816 818 819 820 823 824 825 825 826 827 826 826 826 827 828 829 829 829 829 829 830
769 767 761 758 754 810 774 764 754 753 748 749 757 757 766 791 788 790 792 795 799 800 806 809 813 815 817 817 818 819 820 822 824 825 825 825 828 828 828 828 828 829 829 830 830 830 830 830 830
765 760 756 764 793 745 757 749 749 752 753 754 755 772 779 786 789 791 793 799 801 803 807 810 814 817 819 819 820 821 822 823 824 825 826 830 829 829 830 830 830 831 831 831 831 831 831 832 832
764 755 777 772 785 746 740 742 748 754 758 760 757 774 785 789 790 793 796 801 804 805 808 814 816 819 820 821 823 824 825 826 825 826 830 832 832 832 832 831 832 832 832 832 832 833 833 833 832
761 754 773 789 794 751 749 745 747 756 760 764 763 775 789 792 794 797 798 803 805 807 810 815 818 820 822 823 824 825 827 828 830 831 833 834 834 834 833 833 833 833 833 833 834 834 834 834 834
758 765 780 794 789 766 756 745 752 756 759 765 760 775 783 794 798 800 801 804 808 809 813 817 820 822 824 824 825 827 828 829 832 833 835 836 836 835 835 834 834 835 834 833 834 834 834 834 834
756 763 774 771 792 778 755 753 752 756 770 762 760 777 786 792 797 800 803 806 809 811 815 818 821 823 825 827 827 829 831 832 834 835 837 837 836 836 835 835 836 835 834 834 834 834 834 833 835
751 780 787 783 792 784 758 761 757 757 764 764 766 772 777 788 792 800 805 808 810 812 815 818 821 824 826 828 829 829 832 835 835 837 836 836 836 836 835 836 835 835 836 836 836 834 836 837 836
753 778 780 777 785 787 770 762 759 761 765 775 775 779 786 789 790 797 803 806 810 813 815 818 821 824 826 829 830 829 831 832 835 837 837 834 834 833 834 836 835 836 836 835 836 836 836 838 837
754 776 775 785 789 778 764 761 754 768 768 770 779 781 784 787 789 797 802 806 808 813 816 817 820 823 826 829 830 830 830 831 835 837 836 835 836 836 835 836 835 834 832 834 833 832 831 835 835
772 767 777 785 788 774 768 758 762 763 765 764 772 778 782 786 786 791 799 808 810 814 816 818 821 823 825 828 830 830 830 831 832 834 835 836 834 834 833 832 833 830 828 832 830 830 834 836 836
768 773 773 787 787 778 766 775 767 770 765 769 775 779 781 782 786 791 798 807 810 815 817 820 821 824 826 827 829 828 829 828 829 833 834 833 833 835 835 835 832 832 831 832 832 833 834 835 834
754 766 774 779 788 784 781 781 769 770 767 773 776 777 780 783 788 794 797 805 811 813 817 820 823 826 828 828 829 828 829 828 829 831 834 835 834 835 836 836 834 835 832 832 834 834 834 834 832
753 773 779 779 787 787 784 794 785 768 767 773 773 775 779 784 789 792 797 805 809 813 817 819 821 826 828 830 830 829 829 830 829 831 834 835 835 835 836 835 835 835 836 836 835 834 831 831 830
756 770 788 778 775 781 789 815 789 767 768 772 771 776 780 784 786 791 797 801 807 811 815 818 821 826 828 831 832 830 833 831 829 831 834 835 836 836 835 835 835 836 836 834 834 834 829 829 828
762 787 774 777 773 782 788 814 791 772 779 772 770 773 775 780 785 791 795 799 804 809 814 818 823 826 828 830 832 833 833 830 828 830 831 835 836 836 835 835 835 836 836 834 833 833 832 829 827
775 770 761 778 764 764 776 787 781 777 776 771 767 770 774 777 780 788 793 798 805 811 815 817 821 825 828 830 831 831 831 829 828 829 830 833 835 836 835 835 836 836 836 834 834 834 832 829 829
792 761 756 756 754 759 768 782 775 771 769 773 763 768 770 775 776 785 791 796 803 810 813 816 820 824 827 828 827 826 826 826 827 828 831 834 834 835 835 835 835 836 836 835 836 834 832 828 830
760 752 755 754 750 758 756 761 757 764 765 768 766 765 767 774 772 781 788 794 799 805 811 815 818 822 825 825 825 825 824 825 825 827 830 832 833 834 835 835 835 835 835 836 835 834 830 828 830
747 752 750 755 749 746 751 775 755 755 759 757 758 763 760 766 769 773 782 789 795 802 807 812 815 819 823 822 824 825 825 825 825 827 829 831 832 833 835 835 835 835 834 833 835 833 831 824 827
756 738 744 750 759 813 744 826 802 749 756 757 755 755 759 764 766 766 773 782 790 796 803 808 813 816 820 822 821 823 826 824 824 824 825 828 832 833 834 834 835 836 835 834 833 833 832 829 826
747 739 742 746 747 743 743 756 770 739 751 750 751 750 752 759 763 765 765 771 780 790 797 803 809 813 816 819 821 822 824 822 824 823 824 829 830 832 833 834 835 836 834 834 834 834 832 830 828
734 744 741 737 738 759 735 751 766 767 748 738 736 743 747 750 760 758 760 765 772 781 790 797 805 809 813 816 819 821 821 821 823 823 824 826 827 829 832 833 835 835 835 835 836 836 834 832 830
742 745 761 773 764 766 738 752 742 739 733 733 736 739 741 748 748 755 758 762 771 774 783 791 800 806 809 812 815 818 820 821 823 823 822 822 822 823 827 831 834 834 835 836 836 836 835 833 833
745 737 755 785 762 752 741 760 745 722 725 730 736 737 741 741 749 750 754 761 768 776 779 785 794 802 806 809 812 815 818 819 821 821 822 824 823 821 823 828 831 832 833 834 835 834 833 831 833
740 751 723 744 733 750 738 733 725 724 732 736 735 740 743 744 743 751 751 756 761 770 775 780 788 797 802 805 809 812 814 816 816 817 822 827 821 822 821 827 829 830 832 832 833 833 833 833 833
736 722 752 746 779 781 746 750 750 742 739 733 736 738 740 744 747 747 750 755 759 765 771 777 784 791 796 800 805 808 812 813 815 816 818 817 819 821 821 825 827 829 830 831 831 831 831 832 832
741 748 742 735 739 763 769 758 721 730 729 734 734 738 738 743 745 747 750 752 757 760 766 772 779 785 791 795 799 803 806 809 812 814 816 818 819 821 822 824 827 828 829 829 830 830 830 830 831
726 733 730 748 758 743 747 752 717 724 728 732 737 741 740 742 744 747 749 751 755 756 763 767 773 779 784 789 794 798 802 805 807 810 812 815 818 819 821 823 825 826 827 827 827 828 825 827 829
Wind_Speed
5 5 5 6 5 3 5 6 11 11 8 8 10 12 13 14 10 7 7 10 17 20 14 12 13 11 11 10 10 10 9 8 8 7 8 7 8 9 10 10 12 12 13 13 12 13 14 13 12
6 3 7 6 2 5 6 18 5 12 11 9 8 3 13 17 17 13 10 12 16 18 16 13 12 11 11 11 10 10 10 10 9 7 7 8 8 8 10 10 12 12 13 13 13 13 13 13 12
6 6 8 4 1 5 9 11 11 9 6 3 6 4 9 4 12 7 17 17 13 22 19 14 12 10 12 12 13 12 12 12 12 12 10 7 8 10 11 12 12 12 12 12 12 13 13 12 11
7 6 5 8 4 7 12 13 9 10 9 6 2 11 11 6 7 13 17 16 11 21 16 15 13 12 13 12 13 13 13 15 16 15 11 8 11 11 11 12 12 11 12 11 11 11 11 11 9
8 7 2 2 5 6 15 10 11 7 7 8 4 13 11 10 16 17 18 17 12 17 16 14 15 14 15 15 15 14 16 19 20 15 8 11 10 10 10 11 11 11 11 11 10 10 10 9 8
7 4 7 4 13 14 12 7 8 10 8 5 11 14 8 15 13 10 15 15 15 15 20 16 16 15 17 17 15 15 15 14 14 11 11 10 10 10 11 11 11 11 10 10 9 9 9 8 7
10 7 10 7 5 13 10 4 10 8 8 10 4 13 13 16 14 12 13 14 14 14 18 18 17 16 16 18 18 16 16 13 11 12 10 10 10 10 10 10 10 10 9 9 9 10 9 8 7
7 6 4 13 8 7 4 9 9 9 10 7 7 6 12 22 17 14 12 12 15 14 16 17 17 16 15 16 18 16 11 9 12 11 10 10 10 10 10 10 9 9 9 9 10 10 9 9 7
6 3 2 1 6 1 2 9 9 8 10 7 3 13 19 14 23 17 14 11 8 15 18 16 16 16 16 15 17 15 10 12 11 9 11 11 12 10 7 6 7 8 8 7 8 9 7 8 6
6 3 2 6 7 2 3 3 9 7 15 10 13 15 15 12 11 16 15 14 15 9 20 20 17 17 16 16 19 15 12 14 12 10 8 12 6 3 10 7 7 7 8 8 7 7 7 8 4
6 2 10 7 3 9 9 9 3 8 12 14 13 14 13 11 8 20 10 13 16 15 17 19 20 19 18 17 16 12 8 12 9 9 10 7 8 8 9 7 6 8 9 10 9 9 10 5 6
3 7 7 8 1 7 5 3 8 8 11 14 13 14 11 8 8 20 16 13 14 17 19 17 18 18 18 12 12 12 11 13 12 11 7 8 8 5 4 6 6 7 3 6 5 6 3 1 1
10 8 13 8 3 6 3 3 7 9 12 13 13 11 11 9 9 8 19 17 14 17 19 16 19 14 11 13 9 10 9 8 9 9 9 8 8 6 5 5 1 5 3 6 1 3 2 2 2
8 10 10 8 5 3 3 6 6 8 12 12 12 11 10 10 11 9 16 15 16 18 18 17 19 14 12 9 7 8 10 5 7 8 9 7 7 6 6 5 3 2 3 5 1 1 4 3 2
13 12 5 10 5 1 1 4 6 7 11 11 11 10 9 9 11 11 11 17 17 19 18 18 16 15 12 10 8 8 6 9 7 8 7 7 3 5 3 3 2 1 1 1 2 2 2 2 0
12 13 7 9 11 7 5 2 12 10 11 12 12 11 9 9 10 12 11 16 17 18 21 17 17 15 12 9 7 7 6 5 5 7 7 6 3 4 3 2 2 0 1 1 0 2 5 4 1
10 4 6 14 14 9 7 5 15 4 4 9 12 12 11 11 11 11 13 13 16 16 16 18 15 15 12 8 5 6 6 8 6 5 7 7 4 3 3 2 1 1 1 1 3 3 4 3 2
4 2 12 9 12 12 16 14 14 14 14 12 12 12 9 12 12 13 13 15 16 17 16 16 19 13 9 7 6 8 7 8 6 5 5 6 5 5 2 3 2 1 2 3 1 2 4 4 4
24 1 10 6 8 11 9 8 16 16 15 9 12 16 13 10 13 17 16 16 20 19 19 15 18 16 11 9 11 10 12 7 7 6 5 6 5 4 3 3 4 3 3 5 1 3 2 3 3
12 6 7 8 6 8 8 10 19 17 16 16 12 10 16 11 14 18 18 17 18 20 20 19 17 15 14 12 10 3 7 4 6 9 6 6 5 4 3 3 3 3 4 3 3 4 4 2 4
8 4 2 2 8 11 7 6 13 19 16 15 15 13 10 12 18 17 18 20 20 20 20 20 19 17 14 10 8 5 3 4 5 7 7 7 4 3 2 3 1 1 5 8 3 4 6 10 1
8 5 4 4 8 4 6 4 19 15 16 15 15 14 16 15 14 12 21 20 22 22 22 21 20 18 16 13 11 10 3 8 8 7 6 7 5 4 2 2 4 5 6 1 6 3 4 4 5
8 1 8 6 14 14 12 4 11 13 17 15 14 15 15 17 16 15 14 26 23 22 23 22 21 20 17 15 12 11 11 8 8 6 8 3 6 6 4 2 3 4 8 3 3 2 6 5 5
4 9 8 11 12 10 5 4 8 4 6 10 14 13 15 15 22 18 19 25 24 24 22 22 21 21 19 18 16 13 8 10 1 5 8 10 8 10 8 5 4 6 3 3 2 1 2 7 7
11 16 11 6 8 1 3 5 8 8 7 5 8 7 14 13 14 15 15 13 15 21 23 21 22 21 20 20 18 17 13 10 6 7 11 11 11 14 15 9 7 7 5 3 4 3 3 4 2
13 19 11 7 6 5 11 4 2 12 8 7 4 3 3 10 14 15 18 19 16 19 22 22 24 22 22 21 20 18 16 15 12 13 3 12 13 8 15 9 9 6 5 5 3 5 6 6 3
11 11 15 12 8 7 8 7 9 10 9 6 7 4 6 4 9 13 14 19 21 23 24 23 23 23 23 22 20 19 18 18 15 10 10 20 7 7 10 8 8 7 7 6 4 5 5 0 3
16 8 12 9 6 8 2 3 3 9 7 10 8 7 7 6 4 7 12 16 20 23 25 25 24 25 24 22 21 20 19 18 15 11 10 9 1 4 7 8 8 8 8 9 8 9 10 7 7
8 11 11 14 11 8 6 5 10 6 3 7 5 0 4 1 3 3 5 11 19 21 24 27 26 26 24 24 22 20 19 19 17 16 13 12 10 8 6 8 8 8 9 8 8 11 7 4 7
10 15 13 8 10 11 9 4 8 8 3 4 1 4 2 2 2 2 5 9 13 20 23 23 24 26 27 25 23 22 19 18 19 18 16 14 13 11 11 10 10 10 8 8 8 11 10 9 7
Wind_Direction
197 203 236 236 257 109 76 79 70 53 60 45 56 45 82 43 34 96 155 168 143 139 146 136 136 124 119 114 114 115 116 114 116 112 109 109 110 106 112 111 105 107 102 104 107 106 102 98 99
233 234 239 264 214 2 97 77 80 55 56 70 86 77 78 65 85 118 139 160 154 142 143 143 137 122 123 117 119 115 126 130 124 115 110 114 116 120 114 112 112 113 111 107 108 105 106 106 106
252 256 271 238 216 204 96 108 99 82 70 31 105 86 50 67 62 125 137 155 139 123 136 141 140 129 125 119 116 117 120 129 130 120 118 118 123 123 128 116 114 112 111 112 112 113 114 114 112
219 210 240 255 210 93 114 94 108 113 106 37 60 88 96 60 88 136 130 142 150 123 126 132 130 121 128 128 127 116 115 128 128 110 109 124 121 122 122 122 120 118 119 124 122 123 120 114 110
244 263 307 269 146 96 88 85 70 81 74 82 307 86 86 84 123 124 135 142 131 118 129 134 133 126 125 126 129 128 121 111 122 114 141 128 130 125 125 127 127 129 130 133 130 126 126 125 121
256 249 294 321 291 101 97 96 97 84 81 104 104 112 111 120 116 129 113 125 120 124 124 133 134 130 126 123 123 135 123 122 131 145 148 139 135 124 126 131 130 136 140 145 144 143 141 133 131
260 297 269 258 242 116 115 75 73 85 95 81 149 92 118 119 132 134 130 119 125 134 128 133 131 127 123 129 124 120 122 130 134 139 147 144 137 131 130 133 136 137 145 158 163 161 162 152 155
279 276 303 203 164 88 89 86 72 65 78 92 2 145 146 150 150 133 135 141 140 143 135 136 133 127 129 130 126 122 133 134 138 152 161 156 148 150 148 143 145 150 162 173 176 177 174 169 168
250 293 262 43 133 48 94 115 80 103 122 58 59 101 103 142 140 140 145 129 153 141 145 146 145 136 139 129 128 120 142 139 149 164 168 167 155 164 152 166 164 172 178 188 192 198 198 186 174
278 18 64 60 85 266 238 123 109 153 120 117 101 104 122 139 155 132 148 171 156 159 157 150 147 141 140 145 131 126 143 169 162 168 190 217 182 125 142 162 162 171 176 178 187 190 196 205 207
16 33 120 102 20 268 223 111 111 6 113 140 132 134 141 141 156 129 150 173 163 164 139 147 150 153 142 146 145 135 210 187 164 176 193 147 165 155 160 153 175 176 189 184 186 209 179 214 214
115 110 115 129 265 315 69 151 87 60 82 113 123 136 135 127 155 139 152 139 156 148 147 148 157 155 156 149 161 162 179 186 172 170 177 183 204 158 195 153 117 204 124 138 216 122 97 111 276
116 115 115 126 99 11 68 334 110 109 113 116 125 140 142 131 115 118 136 145 162 152 158 159 155 149 155 162 183 190 169 195 143 159 180 192 154 155 173 160 275 31 194 134 220 60 46 321 355
106 131 130 154 126 54 26 311 118 125 133 131 148 145 146 132 124 130 126 148 152 155 158 159 156 157 153 154 160 179 196 143 163 155 175 174 171 172 163 173 149 150 308 72 24 2 9 353 324
115 124 142 128 165 69 21 239 125 164 155 154 143 152 129 131 135 145 146 150 156 154 159 163 156 159 164 165 173 199 138 165 173 155 167 182 195 169 186 164 158 34 44 202 224 287 223 43 204
160 155 154 161 170 131 131 31 278 195 173 174 153 143 151 143 144 137 150 151 158 157 157 165 163 169 168 176 178 167 173 203 169 160 177 178 189 182 197 189 160 110 344 246 235 345 317 34 29
133 212 131 147 191 155 177 168 259 224 295 192 170 159 161 149 140 145 148 156 155 149 160 164 169 176 176 176 182 192 179 225 179 168 172 191 197 195 215 203 140 55 280 2 266 70 329 18 13
37 130 133 170 168 187 182 167 199 199 210 204 197 161 170 159 157 152 156 145 140 156 163 166 166 172 181 184 196 215 192 214 176 178 177 177 205 209 252 238 217 187 245 200 13 348 349 336 345
275 41 97 88 142 201 199 139 184 188 202 218 216 166 191 146 155 154 155 153 148 159 166 169 169 170 186 194 198 192 191 200 188 178 130 193 202 205 248 263 195 213 245 345 240 263 267 292 345
242 266 94 132 162 227 170 181 179 186 203 196 210 221 173 183 168 156 166 166 165 164 171 173 180 179 188 200 222 275 196 204 224 169 162 205 202 210 237 242 179 195 228 221 253 288 288 275 337
247 308 337 52 181 220 237 327 171 174 198 204 200 204 223 205 183 167 178 176 179 176 179 181 182 187 198 222 195 215 244 216 200 174 198 195 204 209 239 199 262 201 234 183 189 240 295 311 320
267 48 275 232 242 356 221 115 319 169 188 200 206 212 197 182 236 191 172 187 186 185 189 190 194 195 195 204 212 212 233 244 217 221 177 157 199 202 191 171 198 219 262 125 204 212 318 312 329
280 317 275 197 260 219 176 244 216 163 169 185 204 205 215 176 211 208 210 175 187 186 190 195 197 201 201 198 226 209 236 208 215 232 133 240 165 202 191 187 199 214 231 156 4 15 321 293 306
306 240 231 240 255 259 149 261 67 24 97 115 169 195 198 205 196 212 219 177 183 183 190 191 194 201 203 200 208 219 229 234 259 213 171 191 201 197 196 194 194 216 248 167 232 256 304 335 342
219 238 228 222 264 328 134 213 123 160 120 65 117 149 181 202 222 192 222 210 166 186 184 189 186 198 200 201 205 207 214 231 220 237 214 221 209 192 166 187 203 199 218 228 254 257 266 264 305
214 255 278 299 285 96 155 248 68 81 83 112 112 113 152 196 204 217 204 194 206 196 189 192 180 197 201 202 205 205 206 213 220 223 288 265 225 202 147 185 208 218 216 226 255 250 261 150 233
249 223 293 318 292 250 277 127 159 159 150 167 162 153 145 152 196 204 225 216 203 207 195 194 185 195 202 204 204 206 206 219 213 209 192 215 225 198 156 188 208 211 213 229 241 263 269 334 260
268 331 236 217 234 263 207 205 169 144 171 181 173 188 144 142 182 221 209 226 219 206 206 202 195 195 203 203 205 208 212 214 221 216 221 244 249 247 188 183 208 213 232 238 233 241 242 231 251
178 234 251 284 312 320 290 70 60 100 79 152 181 263 120 167 169 205 244 224 228 207 209 203 201 200 204 204 203 208 210 212 212 214 216 220 223 220 214 209 231 242 234 231 239 253 243 214 239
287 298 295 272 217 231 282 10 70 102 125 132 216 157 267 340 319 267 266 220 224 215 203 203 196 205 203 206 205 205 209 213 209 214 213 205 213 212 219 217 219 237 233 247 237 244 271 196 235